THORAD DELTA 1 DEB

Satellite information

Favourite Embed

Satellite Type and Status

DEBRISIN ORBIT

Key statistics

Satellite THORAD DELTA 1 DEB at a glance.

Uptime

18498

Days in orbit

Revolutions

≈ 12.4

Per day

Orbit

SSO

Sun Synchronous Orbit

Inclination

102.0

Latest

Satellite identification and parameters

Extended collection of information and parameters for THORAD DELTA 1 DEB.

Object identification

Identified? True

Debris? True

Object name: THORAD DELTA 1 DEB

International designator: 1974-089GS

Object number (NORAD): 42625

Object ID (CCSDS): 42625

Country: UNITED STATES OF AMERICA (US)

Current information (Y/N): Y

RCS size: SMALL

Orbital parameters

Period: 115.742 minutes

Inclination: 101.9893 deg

SMA: 7867.224 km

Apoapsis: 1493.073 km

Periapsis: 1485.105 km

RAAN: 155.6658 deg

Eccentricy: 0.0005064

Argument of periapsis: 84.5758 deg

Mean anomaly: 67.4667 deg

Mean motion: 12.44143564 rev/day

Mean motion (dot): 0.00000111 rev/day2

B* drag term: 0.0011062 1/REarth

Two-line elements (TLE)

Creation date: July 1, 2025, 6:11 p.m.

Reference frame: TEME

Reference center: EARTH

Epoch: July 1, 2025, 10:29 a.m. UTC

TLE line 0: 0 THORAD DELTA 1 DEB

TLE line 1: 1 42625U 74089GS 25182.43741978 .00000111 00000-0 11062-2 0 9993

TLE line 2: 2 42625 101.9893 155.6658 0005064 84.5758 67.4667 12.44143564528364

Live tracking on map

Real-time ground track for satellite THORAD DELTA 1 DEB.

In-orbit conjunctions

A list of the most updated potential collisions computed for object THORAD DELTA 1 DEB.

Target Orbit TCA Probability of collision Miss distance Type
COSMOS 733 LEO 2024-11-14 08:41:36 0.0002418963 389.0 (m) PAYLOAD
COSMOS 1039 LEO 2024-07-29 19:20:30 0.0002632952 255.0 (m) PAYLOAD
COSMOS 449 LEO 2024-06-25 02:21:31 0.0001641298 353.0 (m) PAYLOAD

Associated space launch

Meteorological satellite using radiometric imaging

THORAD DELTA 1 DEB was lifted into orbit during the mission ‘Delta 2310 | NOAA 4’, on board a Delta 2310 space rocket.

The launch took place on Nov. 15, 1974, 5:11 p.m. from Space Launch Complex 2W.

For more information about the launch, click the button.

Launch to space Delta 2310 | NOAA 4
Delta 2310 | NOAA 4

Agency: N/A

Status: Launch Successful

Launch date: Nov. 15, 1974, 5:11 p.m. UTC

Rocket: Delta 2310

Launch pad: Space Launch Complex 2W

Location: Vandenberg SFB, CA, USA

...

Latest news about this satellite

There are no fresh news available about this satellite. Check back as we update our databases every day.


Newsletter sign-up

Weekly statistics, charts and insights to help you stay on top of the space industry.